Port Huron, MI

7:22 PM EDT on May 29, 2017 (GMT -0400)
Saint Clair County International

Weather History for KPHN - October, 2012

Change the Weather History Date:

Monday, October 15, 2012

  Actual Average (KMTC) Record (KMTC)
Temperature  
Mean Temperature 53 °F -  
Max Temperature 62 °F 60 °F 80 °F (1958)
Min Temperature 44 °F 44 °F 30 °F (2006)
Degree Days  
Heating Degree Days 12    
Growing Degree Days 3 (Base 50)    
Moisture  
Dew Point 42 °F    
Average Humidity 75    
Maximum Humidity 87    
Minimum Humidity 66    
Precipitation  
Precipitation 0.00 in - - ()
Sea Level Pressure  
Sea Level Pressure 29.72 in    
Wind  
Wind Speed 11 mph (West)    
Max Wind Speed 18 mph    
Max Gust Speed 28 mph    
Visibility 10 miles    
Events Rain    
Averages and records for this station are not official NWS values.
T = Trace of Precipitation, MM = Missing Value Source: NWS Daily Summary

Daily Weather History Graph

Daily Weather History Graph

Search for Another Location

Airport or City:

Trip Planner

Search our weather history database for the weather conditions in past years. The results will help you decide how hot, cold, wet, or windy it might be!

Date:

Astronomy

Oct. 15, 2012 Rise Set
Actual Time 7:44 AM EDT 6:46 PM EDT
Civil Twilight 7:15 AM EDT 7:15 PM EDT
Nautical Twilight 6:42 AM EDT 7:48 PM EDT
Astronomical Twilight 6:09 AM EDT 8:20 PM EDT
Moon 7:54 AM EDT (10/15) 6:43 PM EDT (10/15)
Length of Visible Light 11h 59m
Length of Day
11h 02m
New Moon, 0% of the Moon is Illuminated
Oct 15
New Moon
Oct 21
First Quarter
Oct 29
Full
Nov 6
Last Quarter
Nov 13
New

Hourly Weather History & Observations

Time (EDT) Temp. Windchill Dew Point Humidity Pressure Visibility Wind Dir Wind Speed Gust Speed Precip Events Conditions
12:16 AM 62.6 °F - 55.4 °F 77% 29.40 in 10.0 mi SSW 12.7 mph 27.6 mph N/A   Overcast
12:36 AM 60.8 °F - 55.4 °F 82% 29.41 in 10.0 mi WSW 11.5 mph 26.5 mph N/A Rain Light Rain
1:16 AM 59.0 °F - 51.8 °F 77% 29.44 in 10.0 mi SW 11.5 mph 27.6 mph N/A   Overcast
1:56 AM 53.6 °F - 48.2 °F 82% 29.50 in 10.0 mi West 11.5 mph 25.3 mph N/A   Overcast
2:16 AM 53.6 °F - 48.2 °F 82% 29.51 in 10.0 mi West 12.7 mph 27.6 mph N/A   Overcast
2:36 AM 51.8 °F - 44.6 °F 76% 29.52 in 10.0 mi West 15.0 mph 26.5 mph N/A   Overcast
2:56 AM 51.8 °F - 46.4 °F 82% 29.53 in 10.0 mi West 13.8 mph 19.6 mph N/A   Overcast
3:16 AM 51.8 °F - 44.6 °F 76% 29.54 in 10.0 mi West 15.0 mph 20.7 mph N/A   Overcast
3:36 AM 51.8 °F - 44.6 °F 76% 29.55 in 10.0 mi West 11.5 mph 19.6 mph N/A   Overcast
3:56 AM 51.8 °F - 44.6 °F 76% 29.55 in 10.0 mi West 9.2 mph 17.3 mph N/A   Overcast
4:16 AM 50.0 °F - 44.6 °F 82% 29.56 in 10.0 mi WSW 12.7 mph 24.2 mph N/A   Overcast
4:36 AM 51.8 °F - 42.8 °F 71% 29.58 in 10.0 mi West 9.2 mph 24.2 mph N/A   Overcast
4:56 AM 50.0 °F - 42.8 °F 76% 29.58 in 10.0 mi WSW 13.8 mph 23.0 mph N/A   Overcast
5:16 AM 50.0 °F - 42.8 °F 76% 29.60 in 10.0 mi West 11.5 mph 24.2 mph N/A   Overcast
5:36 AM 50.0 °F - 41.0 °F 71% 29.60 in 10.0 mi West 9.2 mph 18.4 mph N/A   Overcast
5:56 AM 50.0 °F - 41.0 °F 71% 29.61 in 10.0 mi West 6.9 mph 21.9 mph N/A   Overcast
6:16 AM 50.0 °F - 41.0 °F 71% 29.62 in 10.0 mi WSW 8.1 mph - N/A   Overcast
6:36 AM 50.0 °F - 41.0 °F 71% 29.63 in 10.0 mi WSW 11.5 mph 23.0 mph N/A   Overcast
6:56 AM 50.0 °F - 41.0 °F 71% 29.64 in 10.0 mi WSW 12.7 mph 19.6 mph N/A   Overcast
7:16 AM 48.2 °F - 41.0 °F 76% 29.64 in 10.0 mi West 9.2 mph 18.4 mph N/A   Overcast
7:36 AM 48.2 °F - 41.0 °F 76% 29.65 in 10.0 mi West 11.5 mph 18.4 mph N/A   Overcast
7:56 AM 48.2 °F - 39.2 °F 71% 29.66 in 10.0 mi West 5.8 mph 25.3 mph N/A   Overcast
8:16 AM 48.2 °F - 39.2 °F 71% 29.67 in 10.0 mi WSW 10.4 mph 19.6 mph N/A   Overcast
8:36 AM 48.2 °F - 39.2 °F 71% 29.67 in 10.0 mi WSW 8.1 mph 20.7 mph N/A   Overcast
8:56 AM 48.2 °F - 39.2 °F 71% 29.68 in 10.0 mi WSW 8.1 mph 17.3 mph N/A   Overcast
9:16 AM 48.2 °F - 39.2 °F 71% 29.68 in 10.0 mi West 11.5 mph 19.6 mph N/A   Overcast
9:36 AM 48.2 °F - 39.2 °F 71% 29.69 in 10.0 mi West 11.5 mph 23.0 mph N/A   Overcast
9:56 AM 48.2 °F - 39.2 °F 71% 29.69 in 10.0 mi West 10.4 mph 17.3 mph N/A   Overcast
10:16 AM 48.2 °F - 39.2 °F 71% 29.70 in 10.0 mi West 12.7 mph 19.6 mph N/A   Overcast
10:36 AM 48.2 °F - 39.2 °F 71% 29.71 in 10.0 mi West 9.2 mph 21.9 mph N/A   Overcast
10:56 AM 48.2 °F - 39.2 °F 71% 29.71 in 10.0 mi West 11.5 mph 23.0 mph N/A   Overcast
11:16 AM 48.2 °F - 41.0 °F 76% 29.71 in 10.0 mi West 6.9 mph 18.4 mph N/A   Overcast
11:36 AM 50.0 °F - 41.0 °F 71% 29.72 in 10.0 mi West 8.1 mph 17.3 mph N/A   Overcast
11:56 AM 50.0 °F - 39.2 °F 66% 29.73 in 10.0 mi West 15.0 mph 23.0 mph N/A   Overcast
12:16 PM 50.0 °F - 39.2 °F 66% 29.74 in 10.0 mi West 10.4 mph 19.6 mph N/A   Overcast
12:36 PM 50.0 °F - 39.2 °F 66% 29.74 in 10.0 mi WNW 10.4 mph 20.7 mph N/A   Overcast
12:56 PM 50.0 °F - 41.0 °F 71% 29.74 in 10.0 mi West 11.5 mph 16.1 mph N/A   Overcast
1:16 PM 50.0 °F - 41.0 °F 71% 29.74 in 10.0 mi WNW 9.2 mph 19.6 mph N/A   Overcast
1:36 PM 50.0 °F - 39.2 °F 66% 29.75 in 10.0 mi West 12.7 mph 18.4 mph N/A   Overcast
1:56 PM 50.0 °F - 39.2 °F 66% 29.76 in 10.0 mi West 9.2 mph 17.3 mph N/A   Overcast
2:16 PM 50.0 °F - 39.2 °F 66% 29.76 in 10.0 mi WNW 11.5 mph 17.3 mph N/A   Overcast
2:36 PM 50.0 °F - 41.0 °F 71% 29.77 in 10.0 mi WNW 18.4 mph 24.2 mph N/A   Overcast
2:56 PM 50.0 °F - 41.0 °F 71% 29.77 in 10.0 mi NW 11.5 mph 18.4 mph N/A   Light Drizzle
3:16 PM 50.0 °F - 41.0 °F 71% 29.77 in 10.0 mi WNW 10.4 mph - N/A Rain Rain
3:36 PM 50.0 °F - 41.0 °F 71% 29.78 in 10.0 mi WNW 10.4 mph 18.4 mph N/A   Light Drizzle
3:56 PM 50.0 °F - 42.8 °F 76% 29.79 in 10.0 mi NW 12.7 mph 16.1 mph N/A   Drizzle
4:16 PM 48.2 °F - 41.0 °F 76% 29.79 in 10.0 mi NW 12.7 mph 21.9 mph N/A   Drizzle
4:36 PM 48.2 °F - 41.0 °F 76% 29.80 in 10.0 mi NW 11.5 mph 18.4 mph N/A   Light Drizzle
4:56 PM 50.0 °F - 41.0 °F 71% 29.80 in 10.0 mi WNW 9.2 mph - N/A   Overcast
5:16 PM 50.0 °F - 41.0 °F 71% 29.81 in 10.0 mi WNW 6.9 mph - N/A   Overcast
5:36 PM 50.0 °F - 41.0 °F 71% 29.82 in 10.0 mi WNW 9.2 mph 18.4 mph N/A   Overcast
5:56 PM 48.2 °F - 41.0 °F 76% 29.83 in 10.0 mi WNW 12.7 mph 16.1 mph N/A   Overcast
6:16 PM 48.2 °F - 41.0 °F 76% 29.84 in 10.0 mi West 10.4 mph - N/A   Overcast
6:36 PM 46.4 °F 42.9 °F 41.0 °F 81% 29.85 in 7.0 mi WNW 6.9 mph - N/A Rain Rain
6:56 PM 46.4 °F - 42.8 °F 87% 29.85 in 10.0 mi Calm Calm - N/A   Overcast
7:16 PM 46.4 °F 42.9 °F 41.0 °F 81% 29.86 in 7.0 mi WNW 6.9 mph - N/A Rain Light Rain
7:36 PM 44.6 °F 39.7 °F 41.0 °F 87% 29.86 in 10.0 mi WNW 9.2 mph 16.1 mph N/A   Overcast
7:56 PM 44.6 °F 41.4 °F 41.0 °F 87% 29.86 in 10.0 mi West 5.8 mph - N/A   Overcast
8:16 PM 44.6 °F 41.4 °F 41.0 °F 87% 29.87 in 10.0 mi WNW 5.8 mph - N/A   Overcast
8:36 PM 44.6 °F 42.2 °F 41.0 °F 87% 29.88 in 10.0 mi West 4.6 mph - N/A   Overcast
8:56 PM 44.6 °F 42.2 °F 39.2 °F 81% 29.88 in 10.0 mi WNW 4.6 mph - N/A   Overcast
9:16 PM 44.6 °F 40.7 °F 39.2 °F 81% 29.89 in 10.0 mi NW 6.9 mph - N/A   Overcast
9:36 PM 46.4 °F 42.4 °F 39.2 °F 76% 29.89 in 10.0 mi WNW 8.1 mph - N/A   Overcast
9:56 PM 46.4 °F 45.2 °F 39.2 °F 76% 29.90 in 10.0 mi West 3.5 mph - N/A   Overcast
10:16 PM 46.4 °F 43.5 °F 39.2 °F 76% 29.90 in 10.0 mi WNW 5.8 mph - N/A   Overcast
10:36 PM 44.6 °F 40.7 °F 39.2 °F 81% 29.90 in 10.0 mi NW 6.9 mph - N/A   Overcast
10:56 PM 46.4 °F 43.5 °F 39.2 °F 76% 29.91 in 10.0 mi WNW 5.8 mph - N/A   Overcast
11:16 PM 44.6 °F 41.4 °F 39.2 °F 81% 29.91 in 10.0 mi NW 5.8 mph - N/A   Overcast
11:36 PM 44.6 °F 41.4 °F 37.4 °F 76% 29.90 in 10.0 mi WNW 5.8 mph - N/A   Overcast
11:56 PM 44.6 °F 42.2 °F 37.4 °F 76% 29.91 in 10.0 mi WNW 4.6 mph - N/A   Overcast